Location: St Paul
(33.4390°N, 83.7350°W)
Time: 16:54:51
(UTC-04:00)

Resurs 01 Rocket - Pass Details

Date: 06 October 2017
Orbit: 634 x 645 km, 98.1° (Epoch: 23 October)

Event Time Altitude Azimuth Distance (km) Brightness Sun altitude
Exits shadow 20:07:12 11° 54° (NE) 1,936 3.6 -12.3°
Drops below altitude 10° 20:07:57 10° 44° (NE) 2,024 3.8 -12.4°
Sets 20:11:32 0° 14° (NNE) 2,936 4.9 -13.2°
